Regional Weather Roundup
Issued by NWS

Home | Current Version | Previous Version | Graphics & Text | Print | Product List | Glossary On
Versions: 1 2 3 4 5 6 7 8 9 10 11 12 13 14 15 16 17 18 19 20 21 22 23 24 25 26 27 28 29 30 31 32 33 34 35 36 37 38 39 40 41 42 43 44 45 46 47 48 49 50
000
ASUS43 KLMK 171702
RWRKY
KENTUCKY REGIONAL WEATHER ROUNDUP
NATIONAL WEATHER SERVICE LOUISVILLE KY
1200 PM EST TUE JAN 17 2017

NOTE "FAIR" INDICATES FEW OR NO CLOUDS BELOW 12,000 FEET
WITH NO SIGNIFICANT WEATHER AND/OR OBSTRUCTIONS TO VISIBILITY.

KYZ001>023-026-027-061>063-070>075-171800-
WESTERN AND SOUTH CENTRAL KENTUCKY

CITY           SKY/WX    TMP DP  RH WIND       PRES   REMARKS
PADUCAH        CLOUDY    50  41  71 SW14      30.06R
HENDERSON      CLOUDY    50  43  76 W12       30.02F
OWENSBORO      CLOUDY    52  48  86 NW9       30.02F
HOPKINSVILLE   MOSUNNY   59  53  79 W16G22    30.05R
BOWLING GREEN  PTSUNNY   63  55  75 SW17G26   30.03R
GLASGOW        NOT AVBL
$$

KYZ024-025-028>034-038-045-046-053-171800-
NORTH CENTRAL KENTUCKY

CITY           SKY/WX    TMP DP  RH WIND       PRES   REMARKS
LOUISVILLE/SDF PTSUNNY   63  52  67 W18G25    29.95R
LOUISVILLE/LOU PTSUNNY   63  52  67 W18G25    29.95S
FORT KNOX      MOSUNNY   61  53  76 SW17G25   29.95S
$$

KYZ035>037-039>044-047>052-055>060-089>105-171800-
NORTHEAST KENTUCKY

CITY           SKY/WX    TMP DP  RH WIND       PRES   REMARKS
LEXINGTON      CLOUDY    63  58  83 SW16G24   29.95F
COVINGTON      PTSUNNY   58  53  84 W18       29.91S
FRANKFORT      CLOUDY    64  57  78 SW16      29.93F
$$

KYZ054-064>069-076>088-106>120-171800-
SOUTHEAST KENTUCKY

CITY           SKY/WX    TMP DP  RH WIND       PRES   REMARKS
JACKSON        CLOUDY    61  56  83 MISG      30.01F
LONDON         LGT RAIN  60  55  83 SW14G25   30.03F
SOMERSET       DRIZZLE   59  59 100 S7        30.03F
MIDDLESBORO    LGT RAIN  59  56  90 S5G10     30.09F
MONTICELLO     CLOUDY    61  59  93 S9G21     30.04F
$$





USA.gov is the U.S. government's official web portal to all federal, state and local government web resources and services.